Location: Newark
(7.0858°N, 171.3717°E)
Time: 07:34:25
(UTC+00:00)

Courier 1B - Pass Details

Date: 26 November 2020
Orbit: 962 x 1209 km, 28.3° (Epoch: 20 January)

Event Time Altitude Azimuth Distance (km) Brightness Sun altitude
Rises 10:41:32 0° 273° (W) 3,703 - -62.0°
Reaches altitude 10° 10:44:39 10° 286° (WNW) 2,786 - -62.6°
Maximum altitude 10:50:08 26° 340° (NNW) 1,947 - -63.8°
Drops below altitude 10° 10:55:52 10° 34° (NE) 2,929 - -64.9°
Sets 10:59:16 0° 47° (NE) 3,932 - -65.6°
